#timestamp,LO_Frequency,Hit 
1506358815.7,286047001.6,N
1506358835.5,286047004.2,N
1506358855.4,286047003.7,N
1506358875.2,286047004.3,N
1506358895.0,286046999.7,N
1506358895.9,286046999.7,N
1506358915.8,286046999.7,N
1506358935.6,286047001.5,N
1506358955.4,286046998.5,N
1506358975.2,286046995.3,N
1506358995.1,286046999.0,N
1506358996.0,286046999.0,N
1506359015.8,286046999.6,N
1506359035.6,286047000.8,N
1506359055.5,286047003.2,N
1506359075.3,286047003.2,N
1506359095.1,286046999.5,N
1506359115.9,286047000.0,N
1506359135.7,286047004.3,N
1506359155.5,286047003.0,N
1506359175.4,286047005.0,N
1506359195.2,286047003.1,N
1506359215.0,286047003.7,N
1506359215.9,286047003.7,N
1506359235.8,286047003.7,N
1506359255.6,286047003.9,N
1506359275.4,286047002.6,N
1506359295.3,286046999.7,N
1506359315.1,286047002.3,N
1506359316.0,286047002.3,N
1506359335.8,286047001.7,N
1506359355.7,286047001.9,N
1506359375.5,286047004.4,N
1506359395.3,286047003.5,N
1506359415.1,286047001.3,N
1506359435.9,286047005.3,N
1506359455.7,286047005.8,N
1506359475.5,286047001.3,N
1506359495.4,286046996.5,N
1506359515.2,286046998.0,N
1506359535.0,286047001.1,N
1506359535.9,286047001.1,N
1506359555.8,286046998.2,N
1506359575.6,286047000.0,N
1506359595.4,286046998.1,N
1506359615.3,286047000.3,N
1506359635.1,286046997.2,N
1506359636.0,286046997.2,N
1506359655.8,286046997.4,N
1506359675.7,286046998.2,N
1506359695.5,286046997.7,N
1506359715.3,286046993.9,N
1506359735.2,286046995.8,N
1506359755.9,286046999.4,N
1506359775.7,286046994.9,N
1506359795.5,286046997.9,N
1506359815.4,286047000.5,N
1506359835.2,286046999.4,N
1506359855.0,286046998.4,N
1506359855.9,286046998.4,N
1506359875.8,286046997.7,N
1506359895.6,286046997.7,N
1506359915.4,286046996.7,N
1506359935.3,286047000.7,N
1506359955.1,286047002.5,N
1506359956.0,286047002.5,N
1506359975.8,286047006.0,N
1506359995.7,286047006.3,N
1506360015.5,286047004.7,N
1506360035.3,286047004.9,N
1506360055.2,286047009.1,N
1506360075.9,286047002.6,N
1506360095.7,286047002.4,N
1506360115.5,286047007.4,N
1506360135.4,286047008.9,N
1506360155.2,286047008.5,N
1506360175.0,286047001.4,N
1506360175.9,286047001.4,N
1506360195.8,286047000.3,N
1506360215.6,286047001.4,N
1506360235.4,286047006.9,N
1506360255.3,286047005.5,N
1506360275.1,286046999.8,N
1506360295.8,286047000.2,N
1506360315.7,286047005.7,N
1506360335.5,286047004.7,N
1506360355.3,286047004.8,N
1506360375.2,286047007.2,N
1506360395.9,286046999.8,N
1506360415.7,286046999.2,N
1506360435.6,286046996.5,N
1506360455.4,286046999.4,N
1506360475.2,286046999.2,N
1506360495.0,286046996.8,N
1506360495.9,286046996.8,N
1506360515.8,286046997.7,N
1506360535.6,286047002.3,N
1506360555.4,286047007.5,N
1506360575.3,286047011.7,P
1506360595.1,286047002.5,N
1506360615.8,286046998.3,N
1506360635.7,286047001.4,N
1506360655.5,286047006.0,N
1506360675.3,286046999.7,N
1506360695.2,286046998.7,N
1506360715.9,286046999.9,N
1506360735.7,286047002.8,N
1506360755.6,286046998.5,N
1506360775.4,286046999.1,N
1506360795.2,286046998.8,N
1506360815.1,286047002.8,N
1506360816.0,286047002.8,N
1506360835.8,286047007.5,N
1506360855.6,286047007.7,N
1506360875.4,286047008.0,N
1506360895.3,286047004.9,N
1506360915.1,286047005.2,N
1506360935.8,286047008.5,N
1506360955.7,286047008.1,N
1506360975.5,286047010.4,N
1506360995.3,286047008.8,N
1506361015.2,286047004.8,N
1506361035.9,286047005.7,N
1506361055.7,286047007.3,N
1506361075.6,286047004.7,N
1506361095.4,286047002.2,N
1506361115.2,286047000.5,N
1506361135.1,286046999.7,N
1506361136.0,286046999.7,N
1506361155.8,286047000.5,N
1506361175.6,286047001.3,N
1506361195.4,286047008.5,N
1506361215.3,286047010.9,N
1506361235.1,286047014.0,P
1506361255.9,286047005.1,N
1506361275.7,286047008.9,N
1506361295.5,286047004.7,N
1506361315.3,286047002.9,N
1506361335.2,286047001.6,N
1506361355.0,286047005.8,N
1506361355.9,286047005.8,N
1506361375.7,286047006.0,N
1506361395.6,286047005.4,N
1506361415.4,286047004.2,N
1506361435.2,286047003.5,N
1506361455.1,286046999.7,N
1506361456.0,286046999.7,N
1506361475.8,286047006.0,N
1506361495.6,286047001.6,N
1506361515.5,286047002.5,N
1506361535.3,286047001.5,N
1506361555.1,286047003.6,N
1506361575.8,286047000.3,N
1506361595.7,286047002.0,N
1506361615.5,286047004.1,N
1506361635.3,286047004.1,N
1506361655.2,286047003.7,N
1506361675.9,286047003.7,N
1506361695.7,286047003.3,N
1506361715.6,286047008.7,P
1506361735.4,286047007.2,P
1506361755.2,286047002.6,N
1506361775.1,286047002.8,N
1506361776.0,286047002.8,N
1506361795.8,286047001.6,N
1506361815.6,286047004.7,N
1506361835.5,286047008.0,P
1506361855.3,286047005.5,N
1506361875.1,286047010.0,P
1506361895.9,286047008.2,P
1506361915.7,286046999.8,N
1506361935.5,286047000.4,N
1506361955.4,286046999.1,N
1506361975.2,286046995.4,N
1506361995.0,286046993.6,N
1506361995.9,286046993.6,N
1506362015.8,286047001.2,N
1506362035.6,286047004.8,N
1506362055.4,286047003.1,N
1506362075.3,286046998.2,N
1506362095.1,286046998.3,N
1506362096.0,286046998.3,N
1506362115.8,286046999.9,N
1506362135.7,286047002.2,N
1506362155.5,286047005.5,N
1506362175.3,286047008.9,N
1506362195.2,286047004.8,N
1506362215.9,286047005.5,N
1506362235.7,286047007.6,N
1506362255.5,286047010.6,N
1506362275.4,286047006.6,N
1506362295.2,286047006.5,N
1506362315.0,286047007.9,N
1506362315.9,286047007.9,N
1506362335.8,286047008.6,N
1506362355.6,286047004.0,N
1506362375.4,286046999.8,N
1506362395.3,286047000.2,N
